Find Starlink 34875

NORAD ID: 65689 Int'l Des: 2025-212 Owner: SPXS Country: US Constellation: starlink operational
LEOCIRCULAR

Live-Position

3D-Globus wird geladen...

Über Starlink 34875

Beschreibung wird geladen...

Nächste Überflüge

Passes for default location (London). Set your location on the main map for personalized predictions.

Höhenverlauf

Loading altitude history...

Zweizeiliger Elementsatz

1 65689U 25212P 26106.45981171 .00007893 00000-0 27835-3 0 9992
2 65689 53.1591 170.4269 0001095 83.4166 276.6959 15.30199806 33026
Epoch: 16. Apr. 2026 • Age: 26 hours

Aktueller Status

Höhe 476.7 km
Geschwindigkeit 7.63 km/s
Subsatellitenpunkt 32.07°N, 78.82°W
Startdatum 21. Sept. 2025
Alter 0.5 years
Typ internet

Technische Details

Klassifizierung Payload
Masse 575.00 kg
Trockenmasse 530.00 kg
Gesamtmasse 575.00 kg
Länge 0.30 m
Durchmesser 4.10 m
Spannweite 29.00 m
Form Box + pan
Hersteller SPXS
Bus-Typ Starlink V2MO
Phasenstatus In Orbit
Besitzer/Staat SPXS/US

Most Searched